Preview of NWS' New Version of Forecast
This preview is not operational and should not be used for support decisions.

Regional Weather Roundup (RWR)

Issued by National Weather Service (NWS)

                            
000
ASUS44 KJAN 181210
RWRMS 

MISSISSIPPI HOURLY WEATHER ROUNDUP
NATIONAL WEATHER SERVICE JACKSON MS
700 AM CDT TUE JUN 18 2019

NOTE: "FAIR: INDICATES FEW OR NO CLOUDS BELOW 12,000 FEET WITH NO
SIGNIFICANT WEATHER AND/OR OBSTRUCTIONS TO VISIBILITY.

MSZ001>002-007>008-010>013-018>021-025>028-034>036-181300-
NORTHWEST MISSISSIPPI
  
CITY           SKY/WX    TMP DP  RH WIND       PRES   REMARKS
BATESVILLE       N/A     70  70 100 CALM      29.93R                  
CLARKSDALE     CLOUDY    72  72 100 CALM      29.91S                  
CLEVELAND      PTSUNNY   73  73 100 S5        29.91R                  
GREENWOOD      CLOUDY    74  71  91 S5        29.92S                  
6HR MIN TEMP:  73; 6HR MAX TEMP:  74;                                

GREENVILLE     CLOUDY    74  72  93 SE6       29.90R                  
6HR MIN TEMP:  70; 6HR MAX TEMP:  74; 6HR PCP:  0.02;                

OLIVE BRANCH   CLOUDY    70  70 100 SE5       29.94                   
OXFORD         CLOUDY    70  70 100 CALM      29.95S                  
TUNICA           N/A     70  70 100 CALM      29.93R FOG              
WINONA         CLOUDY    70  70 100 CALM      29.93S                  
$$

MSZ003>006-009-014>017-022>024-029>033-037>039-181300-
NORTHEAST MISSISSIPPI
  
CITY           SKY/WX    TMP DP  RH WIND       PRES   REMARKS
ABERDEEN       DRIZZLE   70  66  88 CALM      29.98R                  
COLUMBUS AFB   DRIZZLE   72  72 100 CALM      29.95S                  
6HR MIN TEMP:  72; 6HR MAX TEMP:  72; 6HR PCP:  0.03;                

CORINTH        PTSUNNY   72  70  94 CALM      29.94F                  
GOLDN TRIANGLE PTSUNNY   73  72  96 CALM      29.96R                  
STARKVILLE     FAIR      70  70 100 CALM      29.96S                  
TUPELO         CLOUDY    73  70  90 SE7       29.94S                  
6HR MIN TEMP:  71; 6HR MAX TEMP:  73; 6HR PCP:  0.38;                

$$

MSZ040-058-181300-
CENTRAL MISSISSIPPI
  
CITY           SKY/WX    TMP DP  RH WIND       PRES   REMARKS
JACKSON INTL   CLOUDY    73  71  93 S3        29.93S                  
6HR MIN TEMP:  73; 6HR MAX TEMP:  74; 6HR PCP:  0.06;                

JACKSON HAWKNS CLOUDY    74  73  97 S3        29.93S                  
6HR MIN TEMP:  73; 6HR MAX TEMP:  75; 6HR PCP:  0.01;                

MADISON        CLOUDY    72  72 100 CALM      29.93S                  
MERIDIAN KEY   PTSUNNY   75  72  90 CALM      29.96R                  
6HR MIN TEMP:  74; 6HR MAX TEMP:  75; 6HR PCP:  0.21;                

MERIDIAN NAS   CLOUDY    72  70  93 CALM      29.96S                  
6HR MIN TEMP:  72; 6HR MAX TEMP:  73; 6HR PCP:  0.33;                

RAYMOND        CLOUDY    73  73 100 CALM      29.92S                  
VICKSBURG VKS  CLOUDY    73  73 100 S3        29.92S                  
$$

MSZ059>079-181300-
SOUTH MISSISSIPPI
  
CITY           SKY/WX    TMP DP  RH WIND       PRES   REMARKS
BROOKHAVEN     CLOUDY    73  72  94 E5        29.95F                  
HATTIESBURG    HVY RAIN  74  71  91 SW8       29.97S VSB 1            
6HR MIN TEMP:  73; 6HR MAX TEMP:  75; 6HR PCP:  0.42;                

LAUREL         RAIN      72  71  94 S5        29.96R FOG              
MCCOMB         CLOUDY    74  72  93 CALM      29.94S                  
6HR MIN TEMP:  73; 6HR MAX TEMP:  74;                                

NATCHEZ        CLOUDY    74  72  93 S6        29.94S                  
6HR MIN TEMP:  73; 6HR MAX TEMP:  74; 6HR PCP: TRACE;                

PINE BELT      PTSUNNY   72  72 100 VRB3      29.97S                  
6HR MIN TEMP:  72; 6HR MAX TEMP:  75; 6HR PCP:  0.07;                

$$

MSZ080>082-181300-
COASTAL MISSISSIPPI
  
CITY           SKY/WX    TMP DP  RH WIND       PRES   REMARKS
BILOXI         FAIR      82  75  79 S13       29.93S                  
6HR MIN TEMP:  76; 6HR MAX TEMP:  82;                                

PASCAGOULA     FAIR      76  72  87 CALM      29.94S                  
6HR MIN TEMP:  74; 6HR MAX TEMP:  76; 6HR PCP: TRACE;                

GULFPORT       PTSUNNY   81  75  82 S6        29.93R                  
6HR MIN TEMP:  76; 6HR MAX TEMP:  81; 6HR PCP:  0.01;                

$$

LAZ007>009-015>016-023>026-181300-
NORTHEAST LOUISIANA
  
CITY           SKY/WX    TMP DP  RH WIND       PRES   REMARKS
BASTROP        CLOUDY    72  71  98 CALM      29.92S                  
TALLULAH/VBURG PTSUNNY   73  72  96 CALM      29.92S                  
6HR MIN TEMP:  72; 6HR MAX TEMP:  74; 6HR PCP:  0.04;                

VIDALIA        PTSUNNY   74  73  95 S6        29.92S                  
$$